Flag for Canada Weather past 2 weeks in Summerside, Prince Edward Island, Canada

Now
50 °F

Cool.


Feels Like: 44 °F
Forecast: 43 / 52 °F
Wind: 15 mph from Northwest

Location: Summerside Airport

Current Time: May 23, 2015 at 2:03:54 PM

Latest Report: May 23, 2015 at 1:00 PM


Visibility: N/A

Pressure: 29.88 "Hg

Humidity: 47%

Dew point: 30 °F

Location of SummersideLocation

Historic Weather in Summerside — Graph

°F

Summerside temperature yesterday

Maximum temperature yesterday: 55 °F (at 11:00 AM)
Minimum temperature yesterday: 46 °F (at 2:00 AM)
Average temperature yesterday: 49 °F

Past Weeks' High & Low Weather Summary

 TemperatureHumidityPressure
High75 °F (May 16, 5:00 PM)98% (May 18, 2:00 AM)30.43 "Hg (May 18, 2:00 AM)
Low33 °F (May 9, 1:00 AM)27% (May 16, 6:00 PM)29.40 "Hg (May 20, 3:00 PM)
Average51 °F71%30.01 "Hg
* Reported May 8 1:00 PM — May 23 1:00 PM, Summerside, Weather by CustomWeather, © 2015

Note: Actual official high and low records may vary slightly from our data, if they occured in-between our weather recording intervals... More about our weather records

Advertising

Summerside weather history for previous 24 hours

 ConditionsComfort  
Time TempWeatherWind HumidityBarometerVisibility
1:00 PM
Sat, May 23
50 °FCool.15 mph47%29.88 "HgN/A
12:00 PM49 °FCool.17 mph47%29.89 "HgN/A
11:00 AM49 °FCool.21 mph45%29.89 "HgN/A
10:00 AM47 °FCool.16 mph56%29.88 "HgN/A
9:00 AM45 °FCool.15 mph60%29.88 "HgN/A
8:00 AM43 °FQuite cool.15 mph70%29.87 "HgN/A
7:00 AM42 °FQuite cool.13 mph68%29.85 "HgN/A
6:00 AM40 °FQuite cool.12 mph76%29.83 "HgN/A
5:00 AM41 °FQuite cool.13 mph77%29.82 "HgN/A
4:00 AM42 °FQuite cool.12 mph77%29.81 "HgN/A
3:00 AM42 °FQuite cool.14 mph83%29.81 "HgN/A
2:00 AM44 °FQuite cool.10 mph82%29.80 "HgN/A
1:00 AM45 °FCool.15 mph81%29.80 "HgN/A
12:00 AM47 °FCool.6 mph94%29.78 "HgN/A
11:00 PM
Fri, May 22
47 °FCool.12 mph94%29.78 "HgN/A
10:00 PM47 °FCool.12 mph94%29.78 "HgN/A
9:00 PM47 °FCool.9 mph91%29.77 "HgN/A
8:00 PM49 °FCool.10 mph87%29.77 "HgN/A
7:00 PM49 °FCool.10 mph88%29.76 "HgN/A
6:00 PM49 °FCool.10 mph89%29.76 "HgN/A
5:00 PM48 °FCool.13 mph88%29.80 "HgN/A
4:00 PM48 °FCool.12 mph85%29.82 "HgN/A
3:00 PM49 °FCool.13 mph87%29.85 "HgN/A
2:00 PM51 °FCool.15 mph79%29.86 "HgN/A
Weather by CustomWeather, © 2015

See weather overviewHow to use our weather pages